Weather History for Spokane Fairchild, WA

Change the Weather History Date:

Monday, October 22, 2012

  Actual Average Record
Temperature  
Mean Temperature 36 °F -  
Max Temperature 43 °F 52 °F 75 °F (2003)
Min Temperature 29 °F 33 °F 26 °F (2000)
Degree Days  
Heating Degree Days 29    
Moisture  
Dew Point 35 °F    
Average Humidity 96    
Maximum Humidity 100    
Minimum Humidity 66    
Precipitation  
Precipitation 0.15 in - - ()
Sea Level Pressure  
Sea Level Pressure 29.64 in    
Wind  
Wind Speed 10 mph (ENE)    
Max Wind Speed 18 mph    
Max Gust Speed 23 mph    
Visibility 10 miles    
Events Rain    
Averages and records for this station are not official NWS values.
T = Trace of Precipitation, MM = Missing Value Source: NWS Daily Summary

Daily Weather History Graph

Daily Weather History Graph

Search for Another Location

Airport:

Trip Planner

Search our weather history database for the weather conditions in past years. The results will help you decide how hot, cold, wet, or windy it might be!

Date:

Astronomy

Oct. 22, 2012 Rise Set
Actual Time 7:20 AM PDT 5:48 PM PDT
Civil Twilight 6:49 AM PDT 6:20 PM PDT
Nautical Twilight 6:13 AM PDT 6:56 PM PDT
Astronomical Twilight 5:37 AM PDT 7:31 PM PDT
Moon 2:25 PM PDT (10/22) No Moon Set
Length of Visible Light 11h 31m
Length of Day
10h 28m
First Quarter, 57% of the Moon is Illuminated
Oct 22
First Quarter
Oct 29
Full
Nov 6
Last Quarter
Nov 13
New
Nov 20
First Quarter

Hourly Weather History & Observations

Time (PDT) Temp. Windchill Dew Point Humidity Pressure Visibility Wind Dir Wind Speed Gust Speed Precip Events Conditions
12:55 AM 29.3 °F 23.2 °F 29.3 °F 100% 29.87 in 10.0 mi NNE 5.8 mph - N/A   Partly Cloudy
1:55 AM 31.1 °F 24.5 °F 31.1 °F 100% 29.85 in 10.0 mi NNE 6.9 mph - N/A   Overcast
2:14 AM 32.0 °F 24.2 °F 32.0 °F 100% 29.84 in 10.0 mi NNE 9.2 mph - N/A   Overcast
2:19 AM 32.0 °F 24.2 °F 32.0 °F 100% 29.84 in 10.0 mi NNE 9.2 mph - N/A   Overcast
2:55 AM 31.8 °F 24.6 °F 31.8 °F 100% 29.84 in 10.0 mi NE 8.1 mph - 0.00 in   Overcast
3:55 AM 32.2 °F 26.7 °F 32.2 °F 100% 29.83 in 10.0 mi North 5.8 mph - N/A   Overcast
4:55 AM 31.8 °F 25.4 °F 31.8 °F 100% 29.80 in 10.0 mi North 6.9 mph - N/A   Mostly Cloudy
5:55 AM 31.6 °F 24.4 °F 31.6 °F 100% 29.77 in 10.0 mi NNE 8.1 mph - N/A   Overcast
6:55 AM 31.5 °F 22.9 °F 31.5 °F 100% 29.75 in 10.0 mi North 10.4 mph - N/A   Clear
7:55 AM 32.0 °F 24.2 °F 32.0 °F 100% 29.75 in 10.0 mi NNE 9.2 mph - N/A   Scattered Clouds
8:55 AM 33.1 °F 26.1 °F 33.1 °F 100% 29.73 in 10.0 mi North 8.1 mph - N/A   Scattered Clouds
9:55 AM 34.7 °F 25.9 °F 34.7 °F 100% 29.70 in 10.0 mi North 12.7 mph - N/A   Overcast
10:55 AM 37.8 °F 29.8 °F 37.8 °F 100% 29.65 in 10.0 mi North 12.7 mph - N/A   Overcast
11:39 AM 39.2 °F 29.8 °F 35.6 °F 87% 29.60 in 10.0 mi North 18.4 mph - N/A   Partly Cloudy
11:49 AM 41.0 °F 33.1 °F 35.6 °F 81% 29.60 in 10.0 mi North 15.0 mph - N/A   Partly Cloudy
11:55 AM 40.3 °F 33.0 °F 34.9 °F 81% 29.60 in 10.0 mi North 12.7 mph - 0.00 in   Scattered Clouds
12:33 PM 41.0 °F 32.5 °F 33.8 °F 76% 29.58 in 10.0 mi North 17.3 mph - N/A   Mostly Cloudy
12:34 PM 41.0 °F 33.1 °F 33.8 °F 76% 29.58 in 10.0 mi North 15.0 mph - N/A   Mostly Cloudy
12:37 PM 41.0 °F 32.8 °F 33.8 °F 76% 29.58 in 10.0 mi North 16.1 mph - N/A   Mostly Cloudy
12:43 PM 41.0 °F 33.5 °F 33.8 °F 76% 29.57 in 10.0 mi North 13.8 mph - N/A   Scattered Clouds
12:46 PM 41.0 °F 32.8 °F 33.8 °F 76% 29.57 in 10.0 mi North 16.1 mph - N/A   Scattered Clouds
12:47 PM 41.0 °F 33.9 °F 33.8 °F 76% 29.57 in 10.0 mi North 12.7 mph - N/A   Scattered Clouds
12:55 PM 41.2 °F 34.5 °F 33.4 °F 74% 29.57 in 10.0 mi North 11.5 mph - 0.00 in   Scattered Clouds
1:55 PM 42.4 °F 37.0 °F 33.1 °F 69% 29.56 in 10.0 mi NNE 9.2 mph - N/A   Mostly Cloudy
2:55 PM 43.0 °F 37.7 °F 32.7 °F 67% 29.55 in 10.0 mi North 9.2 mph - N/A   Scattered Clouds
3:41 PM 42.8 °F 36.6 °F 32.0 °F 66% 29.56 in 10.0 mi NE 11.5 mph - N/A   Mostly Cloudy
3:52 PM 41.0 °F 33.1 °F 39.2 °F 93% 29.56 in 10.0 mi East 15.0 mph - N/A Rain Light Rain
3:54 PM 41.0 °F 33.5 °F 39.2 °F 93% 29.57 in 10.0 mi East 13.8 mph 21.9 mph N/A Rain Light Rain
3:56 PM 41.0 °F 33.1 °F 41.0 °F 100% 29.57 in 10.0 mi East 15.0 mph 21.9 mph N/A Rain Light Rain
4:09 PM 39.2 °F 30.8 °F 39.2 °F 100% 29.57 in 10.0 mi ENE 15.0 mph - N/A Rain Rain
4:25 PM 37.4 °F 29.3 °F 37.4 °F 100% 29.58 in 9.0 mi ENE 12.7 mph - N/A Rain Light Rain
4:33 PM 37.4 °F 30.3 °F 37.4 °F 100% 29.58 in 10.0 mi East 10.4 mph - N/A Rain Rain
4:50 PM 37.4 °F 32.1 °F 37.4 °F 100% 29.58 in 10.0 mi East 6.9 mph - N/A Rain Light Rain
4:55 PM 36.9 °F 30.7 °F 36.9 °F 100% 29.59 in 10.0 mi East 8.1 mph - 0.06 in Rain Light Rain
5:14 PM 35.6 °F 29.2 °F 35.6 °F 100% 29.59 in 10.0 mi NE 8.1 mph - N/A Rain Rain
5:17 PM 35.6 °F 29.9 °F 35.6 °F 100% 29.59 in 10.0 mi NE 6.9 mph - N/A Rain Rain
5:19 PM 35.6 °F 31.7 °F 35.6 °F 100% 29.59 in 10.0 mi ENE 4.6 mph - N/A Rain Rain
5:21 PM 35.6 °F 30.7 °F 35.6 °F 100% 29.60 in 10.0 mi East 5.8 mph - N/A Rain Rain
5:32 PM 35.6 °F 30.7 °F 35.6 °F 100% 29.59 in 10.0 mi NNE 5.8 mph - N/A Rain Rain
5:39 PM 35.6 °F 32.8 °F 35.6 °F 100% 29.60 in 10.0 mi ENE 3.5 mph - N/A Rain Light Rain
5:55 PM 34.9 °F 30.8 °F 34.9 °F 100% 29.59 in 10.0 mi NE 4.6 mph - 0.07 in Rain Rain
6:03 PM 35.6 °F 31.7 °F 35.6 °F 100% 29.60 in 10.0 mi NE 4.6 mph - N/A Rain Light Rain
6:05 PM 35.6 °F 30.7 °F 35.6 °F 100% 29.60 in 10.0 mi NNE 5.8 mph - N/A Rain Rain
6:08 PM 35.6 °F 31.7 °F 35.6 °F 100% 29.60 in 10.0 mi NE 4.6 mph - N/A Rain Light Rain
6:27 PM 35.6 °F 32.8 °F 35.6 °F 100% 29.60 in 10.0 mi ESE 3.5 mph - N/A Rain Light Rain
6:49 PM 35.6 °F - 35.6 °F 100% 29.61 in 10.0 mi Calm Calm - N/A Rain Light Rain
6:55 PM 34.9 °F - 34.9 °F 100% 29.61 in 10.0 mi Calm Calm - 0.02 in Rain Light Rain
7:23 PM 35.6 °F 29.9 °F 35.6 °F 100% 29.61 in 9.0 mi SSW 6.9 mph - N/A   Overcast
7:26 PM 35.6 °F 29.9 °F 35.6 °F 100% 29.61 in 10.0 mi SSW 6.9 mph - N/A Rain Light Rain
7:39 PM 37.4 °F 27.5 °F 37.4 °F 100% 29.62 in 10.0 mi SSW 18.4 mph - N/A   Overcast
7:48 PM 35.6 °F 26.2 °F 35.6 °F 100% 29.62 in 10.0 mi SSW 15.0 mph - N/A   Overcast
7:53 PM 35.6 °F 25.9 °F 35.6 °F 100% 29.62 in 10.0 mi SSW 16.1 mph - N/A Rain Light Rain
7:55 PM 36.1 °F 27.3 °F 36.1 °F 100% 29.62 in 10.0 mi SSW 13.8 mph - 0.00 in Rain Light Rain
7:59 PM 35.6 °F 25.9 °F 35.6 °F 100% 29.63 in 10.0 mi South 16.1 mph 21.9 mph N/A   Overcast
8:05 PM 35.6 °F 26.6 °F 35.6 °F 100% 29.63 in 10.0 mi South 13.8 mph 21.9 mph N/A   Overcast
8:15 PM 35.6 °F 26.6 °F 35.6 °F 100% 29.64 in 10.0 mi South 13.8 mph 19.6 mph N/A Rain Light Rain
8:25 PM 35.6 °F 26.2 °F 35.6 °F 100% 29.64 in 10.0 mi SSW 15.0 mph 23.0 mph N/A Rain Light Rain
8:47 PM 35.6 °F 26.6 °F 35.6 °F 100% 29.64 in 10.0 mi SSW 13.8 mph - N/A Rain Light Rain
8:48 PM 35.6 °F 26.6 °F 35.6 °F 100% 29.65 in 10.0 mi SSW 13.8 mph 20.7 mph N/A Rain Light Rain
8:55 PM 35.8 °F 26.1 °F 35.8 °F 100% 29.65 in 10.0 mi SSW 16.1 mph 20.7 mph 0.00 in Rain Light Rain
9:06 PM 35.6 °F 27.5 °F 35.6 °F 100% 29.66 in 10.0 mi SSW 11.5 mph - N/A   Overcast
9:16 PM 35.6 °F 27.1 °F 35.6 °F 100% 29.66 in 10.0 mi SSW 12.7 mph - N/A Rain Light Rain
9:21 PM 35.6 °F 27.1 °F 35.6 °F 100% 29.66 in 10.0 mi SSW 12.7 mph - N/A   Overcast
9:29 PM 35.6 °F 28.6 °F 35.6 °F 100% 29.66 in 10.0 mi SSW 9.2 mph - N/A Rain Light Rain
9:46 PM 35.6 °F 28.0 °F 35.6 °F 100% 29.66 in 10.0 mi SSW 10.4 mph 21.9 mph N/A Rain Light Rain
9:55 PM 35.4 °F 26.0 °F 35.4 °F 100% 29.66 in 10.0 mi SSW 15.0 mph 19.6 mph 0.00 in Rain Light Rain
9:58 PM 35.6 °F 26.6 °F 35.6 °F 100% 29.66 in 10.0 mi SSW 13.8 mph 19.6 mph N/A   Overcast
10:14 PM 35.6 °F 26.6 °F 35.6 °F 100% 29.67 in 10.0 mi South 13.8 mph - N/A Rain Light Rain
10:15 PM 35.6 °F 26.2 °F 35.6 °F 100% 29.67 in 10.0 mi South 15.0 mph - N/A   Overcast
10:23 PM 35.6 °F 26.2 °F 35.6 °F 100% 29.67 in 10.0 mi South 15.0 mph - N/A   Overcast
10:36 PM 35.6 °F 27.5 °F 35.6 °F 100% 29.67 in 10.0 mi South 11.5 mph - N/A Rain Light Rain
10:45 PM 35.6 °F 27.1 °F 35.6 °F 100% 29.68 in 10.0 mi South 12.7 mph 21.9 mph N/A   Overcast
10:50 PM 35.6 °F 26.6 °F 35.6 °F 100% 29.68 in 10.0 mi South 13.8 mph - N/A   Overcast
10:55 PM 35.4 °F 26.4 °F 35.4 °F 100% 29.67 in 10.0 mi South 13.8 mph - 0.00 in   Overcast
11:02 PM 35.6 °F 27.5 °F 35.6 °F 100% 29.67 in 10.0 mi South 11.5 mph - N/A   Overcast
11:45 PM 35.6 °F 27.5 °F 35.6 °F 100% 29.68 in 10.0 mi South 11.5 mph - N/A   Overcast
11:55 PM 35.8 °F 27.3 °F 35.8 °F 100% 29.68 in 10.0 mi South 12.7 mph - N/A   Overcast